This is the latest recevied weather packets stored in our database for station/object EA1L-13. If no packets are shown the sender has not sent any weather packets the latest 10 day(s).
| Time | Temp. | Humidity | Pressure | Rain* | Wind** | Luminosity | Snow |
|---|---|---|---|---|---|---|---|
| 1778082304 | 13.33° C | 71% | 1011.1 hPa | 0 mm | - | - | - |
| 1778081405 | 13.89° C | 72% | 1011.3 hPa | 0 mm | - | - | - |
| 1778080504 | 13.89° C | 75% | 1011.4 hPa | 0 mm | - | - | - |
| 1778079604 | 13.89° C | 81% | 1011.5 hPa | 0 mm | - | - | - |
| 1778078704 | 13.33° C | 84% | 1011.6 hPa | 0.25 mm | - | - | - |
| 1778077805 | 13.33° C | 86% | 1011.7 hPa | 0.76 mm | - | - | - |
| 1778076904 | 12.78° C | 85% | 1011.9 hPa | 0.76 mm | - | - | - |
| 1778076006 | 12.22° C | 77% | 1012.1 hPa | 0.76 mm | - | - | - |
| 1778075104 | 12.78° C | 76% | 1012.3 hPa | 0.51 mm | - | - | - |
| 1778074205 | 13.33° C | 72% | 1012.4 hPa | 0 mm | - | - | - |
| 1778073304 | 13.33° C | 69% | 1012.5 hPa | 0 mm | - | - | - |
| 1778072405 | 13.33° C | 67% | 1012.4 hPa | 0 mm | - | - | - |
| 1778071504 | 13.33° C | 69% | 1012.6 hPa | 0 mm | - | - | - |
| 1778070605 | 13.33° C | 69% | 1012.6 hPa | 0 mm | - | - | - |
| 1778069704 | 13.33° C | 65% | 1012.5 hPa | 0 mm | - | - | - |
| 1778068804 | 13.89° C | 60% | 1012.4 hPa | 0 mm | - | - | - |
| 1778067904 | 15° C | 60% | 1012.6 hPa | 0 mm | - | - | - |
| 1778067005 | 14.44° C | 62% | 1012.7 hPa | 0 mm | - | - | - |
| 1778066104 | 13.33° C | 65% | 1012.8 hPa | 0 mm | - | - | - |
| 1778065205 | 13.33° C | 71% | 1012.8 hPa | 0 mm | - | - | - |
| 1778064304 | 13.33° C | 79% | 1012.9 hPa | 0 mm | - | - | - |
| 1778063405 | 13.33° C | 99% | 1012.9 hPa | 0 mm | - | - | - |
| 1778062504 | 13.89° C | 100% | 1012.9 hPa | 0 mm | - | - | - |
| 1778061605 | 13.89° C | 100% | 1013 hPa | 0 mm | - | - | - |
| 1778060704 | 13.89° C | 100% | 1013 hPa | 0 mm | - | - | - |
* Rain latest hour (hover to see other rain measurements)
** Current wind speed in m/s (hover to see current wind gust speed)